Vertical_Velocity
-1 -1 -2 -2 -2 -2 -1 -1 -1 -1 -2 -2 -3 -3 -2 -1 -0 -0 -0 0 0 0 0 1 1 1 0 0 0 0 0 -0 -0 -1 -1 -2 -2 -2 -2 -2 -1 -1 -1 -2 -2 -1 -1 -1 -1 -1 -1 -1 -1 -2 -2 -2 -2 -2 -2 -2 -2 -2 -2 -2 -2 -2 -2 -2 -2
-1 -1 -1 -2 -2 -2 -1 -1 -1 -1 -1 -2 -2 -3 -2 -1 -1 -1 -1 -0 0 0 0 0 0 1 1 0 1 1 1 0 -0 -1 -1 -1 -2 -2 -2 -2 -2 -1 -1 -1 -1 -1 -1 -1 -1 -1 -1 -1 -1 -1 -2 -2 -2 -2 -2 -2 -2 -2 -2 -2 -2 -2 -2 -2 -2
-1 -1 -1 -1 -2 -2 -1 -1 -1 -1 -1 -2 -2 -2 -2 -2 -2 -1 -1 -1 -0 -0 0 0 -0 0 0 0 0 1 1 0 -0 -1 -1 -1 -1 -2 -2 -2 -2 -2 -1 -1 -1 -1 -1 -1 -1 -1 -1 -1 -1 -1 -2 -2 -2 -2 -2 -2 -2 -2 -2 -2 -2 -2 -2 -2 -2
-0 -0 -1 -1 -1 -1 -1 -1 -1 -1 -1 -1 -1 -1 -2 -2 -2 -2 -1 -1 -1 -0 -0 -0 -1 -1 -0 0 0 0 0 0 -0 -1 -1 -2 -1 -1 -1 -1 -2 -2 -2 -1 -1 -1 -1 -1 -1 -1 -1 -1 -1 -1 -1 -2 -2 -2 -2 -2 -2 -2 -2 -2 -2 -2 -1 -1 -2
-0 -0 -0 -1 -1 -1 -1 -1 -1 -1 -2 -1 -0 -1 -2 -2 -2 -2 -2 -1 -1 -1 -1 -1 -1 -1 -1 0 0 0 0 -0 -0 -1 -1 -2 -2 -1 -1 -1 -1 -2 -2 -1 -1 -1 -1 -1 -1 -1 -1 -1 -1 -1 -1 -1 -1 -2 -2 -2 -2 -2 -2 -2 -2 -2 -1 -1 -2
-0 -0 -0 -1 -1 -1 -1 -1 -1 -1 -1 -1 -0 -1 -1 -2 -2 -2 -2 -1 -1 -1 -1 -1 -2 -1 -1 0 0 0 -0 -0 -1 -1 -1 -1 -2 -1 -1 -1 -1 -1 -1 -1 -1 -1 -1 -1 -1 -1 -1 -1 -1 -1 -1 -1 -1 -2 -2 -2 -2 -2 -2 -2 -2 -2 -2 -2 -2
-0 -0 -0 -1 -1 -1 -1 -1 -1 -1 -1 -1 -1 -1 -1 -1 -2 -2 -2 -2 -1 -1 -1 -2 -2 -1 -1 0 0 0 0 -0 -1 -1 -1 -1 -2 -2 -1 -1 -1 -1 -1 -1 -1 -1 -1 -1 -1 -1 -1 -1 -1 -1 -1 -1 -1 -1 -2 -2 -2 -2 -2 -2 -2 -2 -2 -2 -2
-0 0 -0 -0 -1 -1 -1 -1 -1 -0 -0 -0 -0 -1 -1 -1 -2 -2 -2 -2 -1 -1 -1 -2 -2 -2 -1 0 1 1 1 -0 -1 -1 -0 -0 -1 -1 -2 -1 -1 -1 -1 -1 -0 -1 -1 -1 -1 -1 -1 -1 -1 -1 -1 -1 -1 -1 -2 -2 -2 -2 -2 -2 -3 -3 -2 -2 -2
-0 -0 -0 -0 -0 -1 -1 -1 -1 -0 -0 -0 -0 -0 -1 -1 -2 -2 -2 -2 -2 -1 -1 -2 -2 -2 -1 -0 1 1 1 0 -0 -1 -0 -0 -1 -1 -1 -1 -1 -1 -1 -1 -0 -0 -0 -0 -1 -1 -1 -1 -1 -1 -2 -1 -1 -1 -2 -2 -2 -2 -2 -2 -2 -3 -3 -2 -2
-0 -0 -0 0 -0 -0 -0 -1 -1 -1 -1 -1 -1 -0 -0 -1 -2 -2 -2 -2 -2 -1 -2 -2 -2 -2 -2 -1 1 1 1 0 -0 -0 -1 -0 -0 -1 -1 -1 -1 -1 -1 -1 -0 -0 -0 -0 -0 -1 -1 -1 -1 -1 -2 -1 -1 -2 -2 -2 -2 -1 -2 -2 -2 -2 -2 -3 -3
-1 -0 0 0 -0 0 0 0 -1 -1 -1 -1 -1 -1 -1 -1 -1 -2 -2 -2 -1 -2 -2 -2 -1 -2 -2 -1 -0 0 1 1 0 -0 -0 -1 -0 -0 -0 -1 -1 -1 -1 -1 -1 -0 -0 -0 -0 -0 -1 -1 -1 -1 -1 -1 -1 -2 -2 -2 -2 -2 -1 -2 -2 -2 -2 -2 -2
-1 -1 -0 -0 0 1 1 1 -0 -1 -1 -2 -2 -2 -1 -1 -1 -1 -2 -2 -2 -2 -2 -1 -1 -2 -2 -2 -1 -0 0 0 0 0 -0 -1 -1 -0 -0 -0 -0 -0 -1 -1 -1 -1 -0 -0 -0 -0 -0 -0 -0 -1 -1 -1 -1 -2 -2 -2 -2 -2 -2 -2 -2 -2 -2 -2 -2
-1 -2 -2 -1 -1 0 1 1 1 0 -0 -2 -2 -2 -2 -2 -1 -1 -1 -2 -2 -2 -2 -1 -1 -1 -1 -2 -1 -1 -1 -0 0 0 -0 -1 -1 -1 -0 -0 -0 0 -0 -0 -0 -0 -1 -1 -1 -0 -0 -0 -0 -0 -0 -1 -1 -1 -2 -2 -2 -2 -2 -2 -2 -1 -1 -1 -2
-2 -2 -2 -2 -2 -1 -1 -0 0 0 0 -1 -1 -2 -1 -2 -2 -1 -1 -2 -2 -2 -2 -2 -2 -1 -1 -1 -2 -2 -2 -1 -0 0 0 -0 -1 -1 -1 -1 -0 0 0 0 0 -0 -0 -1 -1 -1 -0 -0 -0 -0 -0 -0 -0 -1 -1 -1 -2 -2 -2 -2 -2 -1 -1 -1 -2
-2 -3 -3 -2 -2 -2 -2 -2 -2 -1 -0 -0 -1 -1 -1 -1 -2 -1 -1 -2 -2 -2 -2 -2 -2 -2 -1 -0 -1 -2 -2 -2 -1 -0 -0 -0 -0 -1 -1 -1 -0 -0 0 0 0 0 0 -0 -1 -1 -1 -1 -1 -0 -0 -0 -0 -0 -1 -1 -1 -1 -2 -2 -2 -1 -1 -1 -2
-2 -3 -3 -2 -2 -3 -3 -3 -2 -2 -1 -1 -1 -1 -0 -1 -1 -1 -1 -2 -2 -2 -1 -2 -2 -2 -1 -1 -1 -2 -2 -2 -2 -1 -1 -0 -0 -1 -1 -1 -1 -0 0 0 0 0 0 0 -0 -0 -1 -1 -1 -1 -0 -0 -0 -0 -0 -1 -1 -1 -1 -1 -1 -1 -1 -1 -2
-2 -2 -2 -2 -2 -2 -3 -3 -3 -2 -2 -2 -1 -1 -1 -1 -1 -1 -1 -1 -1 -1 -1 -2 -1 -1 -1 -2 -1 -1 -1 -2 -2 -2 -1 -1 -0 -0 -1 -1 -1 -1 -0 0 0 0 0 0 0 -0 -1 -1 -1 -1 -1 -0 -0 -0 -0 -0 -1 -1 -1 -1 -1 -1 -1 -1 -2
-2 -2 -2 -1 -2 -2 -2 -2 -2 -2 -2 -2 -2 -1 -1 -1 -1 -1 -1 -1 -1 -1 -1 -2 -1 -1 -0 -1 -1 -1 -1 -1 -2 -2 -2 -1 -1 -0 -1 -1 -1 -1 -0 -0 -0 0 0 0 0 0 -0 -1 -1 -1 -1 -1 -1 -1 -0 -0 -1 -1 -1 -1 -1 -1 -1 -1 -1
-1 -1 -1 -1 -1 -2 -2 -2 -2 -2 -2 -2 -2 -2 -2 -1 -1 -1 -1 -2 -1 -1 -1 -2 -1 -1 -0 -1 -1 -1 -1 -1 -2 -2 -2 -2 -2 -1 -1 -1 -2 -1 -1 -0 -0 -0 -0 0 0 0 -0 -0 -1 -1 -1 -1 -1 -1 -0 -0 -1 -1 -1 -1 -1 -1 -1 -1 -1
-1 -1 -1 -1 -1 -1 -1 -2 -2 -2 -2 -2 -2 -2 -2 -2 -1 -1 -1 -2 -1 -1 -0 -1 -1 -1 -1 -0 -1 -1 -1 -0 -1 -2 -3 -2 -3 -2 -1 -1 -2 -2 -1 -1 -1 -0 -0 -0 0 0 0 -0 -0 -1 -1 -1 -1 -1 -1 -0 -1 -1 -1 -0 -0 -0 -0 -1 -1
-1 -1 -1 -0 -0 -1 -1 -1 -1 -1 -1 -2 -2 -2 -2 -2 -2 -2 -2 -2 -1 -1 -1 -2 -1 -1 -1 -1 -1 -1 -1 -0 -1 -2 -3 -3 -3 -3 -2 -1 -1 -1 -1 -1 -1 -0 -0 -0 -0 -0 0 0 -0 -1 -1 -1 -1 -1 -1 -1 -1 -1 -1 -0 -0 -0 -0 -0 -0
-1 -1 -0 -0 -0 -0 -1 -1 -1 -1 -1 -1 -2 -2 -2 -2 -2 -2 -2 -2 -1 -1 -1 -2 -1 -1 -1 -1 -1 -1 -1 0 -0 -1 -2 -2 -3 -3 -2 -1 -1 -1 -1 -2 -1 -1 -0 -0 -0 -0 0 -0 -0 -0 -1 -1 -1 -1 -1 -1 -1 -1 -1 -0 -0 -0 0 0 0
-0 -0 -0 -0 0 0 -0 -0 -0 -0 -1 -1 -2 -2 -2 -2 -2 -2 -2 -2 -2 -2 -2 -2 -1 -1 -1 -1 -1 -1 -1 -0 -1 -1 -1 -1 -2 -3 -3 -1 -1 -1 -1 -2 -1 -1 -0 -1 -1 -0 0 -0 -0 -1 -1 -1 -1 -1 -1 -1 -1 -1 -1 -1 -0 -0 -0 0 0
-0 -0 0 0 0 0 0 0 0 0 -0 -1 -1 -1 -2 -2 -2 -2 -2 -2 -2 -2 -2 -2 -1 -1 -1 -1 -1 -1 -1 -1 -1 -1 -1 -1 -2 -3 -3 -2 -1 -0 -1 -2 -1 -1 -0 -0 -1 -1 -0 0 -0 -0 -1 -1 -1 -1 -1 -1 -1 -1 -1 -1 -1 -1 -1 -0 -0
-0 -0 0 0 0 0 1 1 0 -0 -1 -1 -1 -1 -1 -2 -2 -2 -2 -3 -3 -2 -2 -2 -2 -1 -1 -1 -1 -1 -1 -1 -1 -1 -1 -1 -2 -2 -2 -2 -1 -0 -1 -2 -1 -1 -0 -0 -1 -1 -0 0 0 -0 -1 -1 -1 -1 -1 -1 -1 -1 -1 -1 -2 -2 -1 -1 -1
-0 -0 -0 -0 0 1 1 1 0 -0 -1 -1 -1 -1 -2 -3 -2 -2 -2 -3 -3 -3 -2 -2 -2 -2 -1 -1 -1 -1 -1 -1 -1 -1 -0 -0 -2 -2 -2 -1 -1 -0 -1 -2 -1 -1 -0 -1 -1 -1 -0 -0 0 0 -0 -1 -1 -1 -2 -2 -1 -1 -1 -1 -2 -2 -2 -2 -2
-0 -0 -1 -0 1 1 0 -0 0 0 -0 -1 -1 -2 -2 -2 -2 -2 -2 -3 -3 -3 -2 -1 -2 -2 -1 -1 -1 -1 -1 -1 -1 -0 -0 0 -1 -2 -2 -1 -0 -0 -0 -0 -0 -1 -1 -1 -1 -1 -1 -1 -0 0 -0 -1 -1 -2 -2 -2 -1 -1 -1 -1 -1 -2 -2 -3 -3
0 -0 -0 1 1 0 -0 1 1 -0 -1 -1 -1 -2 -2 -1 -1 -2 -2 -3 -3 -2 -2 -2 -2 -1 -1 -1 -1 -1 -1 -1 -1 -1 -0 -0 -1 -2 -2 -1 -0 0 0 1 -0 -0 -1 -2 -2 -2 -2 -1 -1 -0 0 -0 -1 -1 -2 -2 -2 -1 -1 -1 -1 -1 -1 -2 -3
0 0 1 2 1 0 0 1 0 -1 -1 -1 -1 -1 -1 -1 -1 -2 -2 -2 -2 -2 -2 -3 -1 0 0 -1 -1 -1 -0 -1 -1 -1 -0 -1 -1 -1 -1 -0 -0 0 0 1 -0 -1 -1 -2 -3 -3 -3 -2 -1 -1 0 1 -0 -1 -1 -1 -1 -1 -1 -1 -1 -0 -1 -1 -1
1 1 1 1 0 0 1 0 -0 -0 -0 0 -0 -0 -1 -1 -2 -2 -2 -2 -2 -2 -2 -1 -0 0 -0 -2 -1 -0 -0 -1 -0 -0 -0 -1 -0 -0 -0 0 0 0 -0 -0 -1 -2 -2 -2 -3 -3 -3 -3 -2 -1 -0 0 0 -0 -1 -1 -1 -1 -1 -1 -1 -1 -1 -0 -0
1 1 1 1 1 0 0 -0 0 0 0 0 0 -0 -1 -1 -2 -2 -2 -1 -2 -2 -2 0 0 -1 -1 -1 0 0 -0 -0 0 0 -0 1 1 1 1 1 1 -0 -1 -1 -2 -2 -2 -2 -2 -3 -3 -3 -2 -2 -1 -0 0 0 -0 -0 -0 -1 -1 -1 -1 -1 -1 -1 -0
1 1 1 1 0 0 -0 0 1 1 0 0 -0 -1 -1 -2 -2 -2 -2 -1 -2 -1 -1 -0 -0 -1 -1 0 1 0 -0 0 0 0 1 2 2 2 2 2 -0 -2 -2 -2 -2 -2 -2 -2 -2 -2 -3 -3 -2 -2 -2 -1 -1 -0 0 0 -0 -0 -1 -1 -1 -1 -1 -1 -1
1 1 1 1 0 -0 0 1 0 0 0 -0 -1 -1 -1 -2 -1 -1 -1 -1 -0 -0 -0 -0 1 0 0 1 1 0 0 1 1 1 1 2 2 1 1 0 -1 -2 -2 -2 -2 -1 -1 -2 -2 -2 -2 -2 -2 -2 -2 -1 -1 -1 -0 -0 -0 -0 -1 -1 -1 -1 -1 -1 -1
1 0 0 0 0 0 0 0 -0 -0 -0 -0 -1 -1 -0 -0 0 0 -0 -0 0 1 1 1 1 1 0 1 2 1 0 0 1 1 0 0 1 1 0 -1 -1 -1 -2 -2 -2 -1 -1 -2 -2 -2 -2 -2 -2 -2 -1 -1 -1 -1 -0 -1 -1 -1 -1 -2 -2 -2 -2 -2 -2
1 0 -0 -0 0 0 0 -0 -0 0 0 0 -0 0 1 1 1 1 0 1 1 1 1 1 2 1 1 1 2 1 0 -0 -0 -1 -1 -1 -0 0 0 -1 -1 -1 -1 -1 -2 -1 -1 -2 -2 -2 -2 -2 -2 -2 -1 -1 -2 -1 -1 -1 -1 -1 -1 -2 -3 -3 -2 -2 -2
1 0 -0 -0 0 0 0 -0 0 1 1 0 0 0 1 1 1 1 1 2 3 2 1 1 1 1 1 1 1 1 0 -1 -1 -2 -1 -1 -0 -0 -0 -0 -1 -1 -1 -1 -2 -1 -1 -2 -2 -2 -2 -2 -2 -2 -1 -1 -2 -1 -1 -1 -1 -2 -2 -2 -3 -3 -2 -2 -2
0 0 0 0 1 1 0 0 1 1 0 -0 0 0 0 0 1 1 2 3 3 2 1 2 1 1 0 1 1 -0 -1 0 -0 -1 -2 -1 -0 -0 -1 -0 -0 -1 -2 -2 -2 -2 -1 -1 -2 -2 -2 -2 -3 -2 -2 -2 -2 -1 -1 -1 -2 -2 -2 -2 -3 -3 -2 -2 -2
-0 -0 0 0 1 1 1 1 1 0 -0 -1 -0 -0 -0 1 1 1 1 4 2 1 0 2 1 -0 -0 1 0 -1 -1 1 0 -1 -2 -1 -0 -0 -0 -0 -1 -1 -2 -3 -3 -2 -1 -2 -2 -2 -2 -2 -3 -2 -2 -2 -2 -1 -1 -1 -2 -2 -2 -2 -3 -2 -2 -2 -2
-0 -0 -0 0 0 1 1 1 0 -0 -1 -1 -0 -0 0 1 0 0 1 3 2 1 1 2 0 -0 -0 1 0 -0 -1 -0 0 -0 -1 -1 -1 0 1 -0 -1 -1 -1 -2 -4 -3 -2 -2 -2 -3 -3 -2 -3 -3 -2 -1 -2 -2 -1 -1 -2 -3 -3 -2 -2 -2 -2 -1 -1
1 0 -0 -0 -0 0 0 0 -1 -1 -0 -0 -0 -0 0 0 -1 -1 1 2 2 1 1 1 -0 -0 0 1 1 0 -0 -1 -0 -0 -1 -1 -1 0 1 0 -1 -1 -1 -2 -3 -3 -2 -1 -2 -3 -3 -3 -3 -3 -3 -2 -2 -2 -2 -2 -2 -4 -4 -3 -1 -1 -2 -2 -1
2 1 0 -0 -0 -0 -0 -1 -1 -1 0 0 -1 -1 -1 0 -1 -0 1 2 1 1 1 1 -0 -0 1 1 1 1 0 -1 -1 -1 -1 -1 -1 -0 1 0 -1 -1 -0 -1 -2 -3 -3 -1 -2 -3 -4 -4 -4 -4 -3 -2 -3 -3 -3 -3 -3 -4 -4 -4 -1 -1 -1 -2 -2
Height
5740 5740 5739 5739 5738 5738 5738 5738 5737 5737 5736 5736 5735 5735 5735 5735 5735 5735 5735 5734 5734 5734 5734 5733 5733 5733 5733 5732 5732 5731 5731 5730 5730 5729 5728 5727 5726 5726 5725 5725 5725 5724 5724 5723 5723 5723 5722 5722 5721 5721 5720 5720 5720 5719 5719 5718 5717 5716 5716 5716 5715 5715 5715 5714 5714 5713 5712 5712 5711
5736 5736 5735 5735 5735 5735 5734 5734 5734 5733 5733 5732 5732 5731 5731 5731 5731 5731 5731 5730 5730 5730 5730 5730 5730 5729 5729 5729 5728 5728 5728 5727 5726 5725 5725 5724 5723 5723 5722 5722 5721 5721 5721 5720 5720 5720 5719 5719 5718 5718 5718 5717 5717 5716 5715 5715 5714 5714 5713 5713 5712 5712 5712 5711 5711 5710 5710 5710 5709
5733 5733 5732 5732 5731 5731 5731 5730 5730 5730 5729 5729 5728 5728 5727 5727 5727 5727 5727 5726 5726 5726 5726 5726 5725 5725 5725 5725 5725 5725 5724 5723 5723 5722 5721 5721 5720 5720 5719 5718 5718 5718 5717 5717 5717 5717 5716 5716 5715 5715 5715 5714 5714 5713 5713 5712 5711 5711 5710 5710 5710 5709 5709 5709 5708 5708 5708 5707 5706
5730 5729 5729 5728 5728 5728 5727 5727 5726 5726 5726 5725 5725 5724 5724 5723 5723 5723 5723 5723 5722 5722 5722 5722 5721 5721 5721 5721 5721 5721 5720 5720 5719 5719 5718 5717 5717 5716 5716 5715 5715 5715 5714 5714 5714 5713 5713 5713 5712 5712 5712 5711 5711 5710 5710 5709 5709 5708 5708 5707 5707 5706 5706 5706 5705 5705 5705 5705 5704
5726 5726 5725 5725 5725 5724 5724 5723 5723 5722 5722 5722 5721 5721 5720 5720 5719 5719 5719 5719 5719 5718 5718 5718 5718 5717 5717 5717 5717 5717 5717 5716 5715 5715 5715 5714 5713 5713 5712 5712 5712 5711 5711 5711 5710 5710 5710 5710 5709 5709 5709 5708 5708 5707 5707 5706 5706 5705 5705 5704 5704 5703 5703 5703 5703 5702 5702 5702 5701
5723 5722 5722 5721 5721 5720 5720 5720 5719 5719 5719 5718 5718 5717 5717 5716 5715 5715 5715 5715 5715 5715 5714 5714 5714 5714 5714 5714 5714 5714 5713 5713 5712 5712 5711 5710 5710 5710 5709 5709 5708 5708 5708 5708 5707 5707 5707 5706 5706 5706 5705 5705 5705 5704 5704 5704 5703 5703 5702 5701 5701 5700 5700 5700 5700 5700 5699 5699 5699
5719 5719 5718 5718 5717 5717 5716 5716 5716 5715 5715 5715 5714 5714 5713 5713 5712 5711 5711 5711 5711 5711 5710 5710 5710 5710 5710 5710 5710 5710 5710 5709 5709 5708 5708 5707 5706 5706 5705 5705 5705 5705 5705 5705 5704 5704 5704 5703 5703 5703 5702 5702 5702 5701 5701 5700 5700 5700 5699 5699 5698 5698 5697 5697 5697 5696 5696 5696 5696
5715 5715 5715 5714 5714 5713 5713 5712 5712 5712 5711 5711 5710 5710 5710 5709 5708 5708 5708 5707 5707 5707 5707 5706 5706 5705 5706 5706 5706 5706 5706 5705 5705 5705 5704 5704 5703 5703 5702 5702 5701 5701 5701 5701 5701 5701 5700 5700 5700 5700 5699 5699 5699 5698 5698 5698 5697 5697 5696 5696 5695 5695 5695 5694 5694 5694 5693 5693 5693
5712 5711 5711 5710 5710 5710 5709 5709 5708 5708 5707 5707 5707 5706 5706 5705 5705 5704 5704 5704 5703 5703 5703 5702 5702 5702 5702 5702 5702 5703 5703 5702 5701 5701 5701 5700 5700 5699 5699 5698 5698 5698 5698 5698 5698 5697 5697 5697 5697 5696 5696 5696 5695 5695 5695 5695 5694 5694 5694 5693 5693 5692 5692 5691 5691 5691 5690 5690 5690
5708 5707 5707 5707 5706 5706 5705 5705 5704 5704 5704 5703 5703 5702 5702 5701 5701 5700 5700 5700 5699 5699 5699 5698 5698 5698 5698 5698 5698 5699 5699 5698 5698 5698 5697 5697 5696 5696 5695 5695 5695 5694 5694 5694 5694 5694 5694 5694 5693 5693 5693 5693 5692 5692 5692 5692 5691 5691 5691 5690 5690 5690 5689 5689 5689 5688 5688 5687 5687
5704 5704 5703 5703 5702 5702 5702 5701 5700 5700 5700 5699 5699 5699 5698 5697 5697 5696 5696 5696 5695 5695 5695 5695 5694 5694 5694 5694 5694 5694 5695 5695 5694 5694 5694 5693 5693 5692 5692 5692 5691 5691 5690 5690 5690 5690 5690 5690 5690 5690 5690 5690 5689 5689 5689 5689 5688 5688 5688 5687 5687 5687 5686 5686 5686 5685 5685 5685 5684
5700 5700 5699 5699 5699 5698 5698 5697 5697 5696 5696 5695 5695 5695 5694 5694 5693 5693 5692 5692 5691 5691 5691 5691 5690 5690 5690 5690 5690 5690 5690 5690 5690 5690 5690 5690 5689 5689 5689 5688 5688 5687 5687 5687 5687 5687 5687 5687 5687 5686 5686 5686 5686 5686 5685 5685 5685 5685 5685 5684 5684 5684 5684 5683 5683 5683 5682 5682 5682
5695 5695 5695 5695 5694 5694 5694 5693 5693 5693 5692 5692 5691 5691 5690 5690 5689 5689 5688 5688 5687 5687 5687 5687 5686 5686 5686 5685 5685 5685 5685 5686 5686 5686 5686 5685 5685 5685 5685 5685 5685 5684 5684 5684 5683 5683 5683 5683 5683 5683 5683 5683 5683 5682 5682 5682 5682 5682 5681 5681 5681 5681 5680 5680 5680 5680 5679 5679 5679
5691 5690 5690 5690 5690 5690 5689 5689 5689 5689 5689 5688 5687 5687 5686 5686 5685 5685 5684 5684 5683 5683 5683 5682 5682 5682 5682 5682 5681 5681 5681 5681 5681 5682 5682 5682 5681 5681 5681 5681 5681 5680 5680 5680 5680 5680 5680 5680 5680 5679 5679 5679 5679 5679 5679 5679 5679 5678 5678 5678 5678 5678 5677 5677 5677 5676 5676 5676 5676
5686 5686 5686 5685 5685 5685 5685 5685 5685 5685 5684 5684 5684 5683 5683 5682 5681 5681 5680 5680 5679 5679 5679 5679 5678 5678 5678 5678 5677 5677 5677 5677 5677 5677 5677 5678 5677 5677 5677 5677 5677 5677 5677 5676 5676 5676 5676 5676 5676 5676 5675 5675 5675 5675 5675 5675 5675 5675 5675 5675 5675 5674 5674 5674 5674 5673 5673 5673 5672
5682 5682 5681 5681 5681 5681 5680 5680 5680 5680 5680 5680 5679 5679 5679 5678 5678 5677 5676 5676 5675 5675 5675 5675 5674 5674 5674 5674 5673 5673 5672 5672 5672 5673 5673 5673 5673 5673 5673 5673 5673 5673 5673 5673 5673 5673 5672 5672 5672 5672 5672 5672 5672 5672 5671 5671 5671 5671 5671 5671 5671 5671 5670 5670 5670 5670 5670 5669 5669
5678 5678 5677 5677 5677 5676 5676 5676 5676 5675 5675 5675 5675 5675 5674 5674 5674 5673 5672 5672 5671 5671 5671 5670 5670 5670 5670 5670 5669 5669 5668 5668 5668 5668 5668 5669 5669 5669 5668 5668 5668 5669 5669 5669 5669 5669 5669 5669 5669 5668 5668 5668 5668 5668 5668 5668 5668 5667 5667 5667 5667 5667 5667 5667 5667 5666 5666 5666 5665
5674 5674 5673 5673 5673 5672 5672 5672 5671 5671 5671 5671 5670 5670 5670 5670 5669 5669 5668 5668 5667 5667 5667 5666 5666 5666 5666 5665 5665 5665 5665 5664 5664 5664 5664 5664 5664 5664 5664 5664 5664 5664 5664 5665 5665 5665 5665 5665 5665 5665 5665 5664 5664 5664 5664 5664 5664 5664 5663 5663 5663 5663 5663 5663 5663 5663 5663 5662 5662
5670 5670 5669 5669 5669 5668 5668 5668 5667 5667 5667 5666 5666 5666 5665 5665 5665 5665 5664 5664 5663 5663 5662 5662 5662 5662 5661 5661 5661 5660 5660 5660 5660 5659 5659 5659 5659 5660 5660 5660 5660 5660 5660 5660 5660 5660 5661 5661 5661 5661 5660 5660 5660 5660 5660 5660 5660 5660 5660 5659 5659 5659 5659 5659 5659 5659 5659 5659 5658
5666 5665 5665 5665 5665 5664 5664 5663 5663 5663 5662 5662 5662 5661 5661 5661 5660 5660 5660 5659 5659 5659 5658 5658 5657 5657 5657 5657 5657 5656 5656 5656 5655 5655 5655 5655 5655 5655 5655 5655 5655 5655 5655 5656 5656 5656 5656 5656 5656 5656 5656 5656 5656 5656 5656 5656 5655 5655 5655 5655 5655 5655 5655 5655 5655 5655 5655 5655 5655
5661 5661 5661 5660 5660 5660 5660 5659 5659 5659 5658 5658 5658 5657 5657 5656 5656 5655 5655 5655 5655 5654 5654 5653 5653 5653 5653 5652 5652 5652 5652 5652 5651 5650 5650 5650 5650 5650 5650 5650 5650 5650 5651 5651 5651 5651 5652 5652 5652 5652 5652 5652 5652 5652 5652 5651 5651 5651 5651 5651 5651 5651 5651 5651 5651 5651 5651 5651 5651
5657 5657 5656 5656 5656 5655 5655 5655 5655 5654 5654 5654 5653 5653 5652 5652 5651 5651 5651 5650 5650 5650 5649 5649 5649 5648 5648 5648 5648 5647 5647 5647 5647 5646 5646 5645 5645 5645 5645 5646 5646 5646 5646 5646 5647 5647 5647 5647 5647 5647 5647 5647 5647 5647 5647 5647 5647 5647 5647 5647 5647 5647 5647 5647 5647 5647 5647 5647 5647
5653 5652 5652 5651 5651 5651 5651 5650 5650 5650 5650 5649 5649 5648 5648 5647 5647 5647 5646 5646 5645 5645 5645 5644 5644 5644 5644 5643 5643 5643 5643 5643 5642 5642 5642 5641 5641 5640 5641 5641 5642 5642 5641 5641 5642 5642 5642 5642 5642 5642 5643 5643 5642 5642 5642 5643 5642 5642 5642 5642 5642 5642 5642 5642 5642 5642 5642 5642 5642
5648 5647 5647 5647 5647 5646 5646 5646 5646 5645 5645 5645 5644 5644 5643 5643 5642 5642 5642 5641 5641 5640 5640 5640 5640 5639 5639 5639 5638 5638 5638 5638 5638 5638 5637 5637 5636 5636 5636 5636 5637 5637 5637 5637 5637 5637 5637 5637 5637 5638 5638 5638 5638 5638 5637 5638 5638 5638 5638 5638 5637 5637 5637 5637 5637 5637 5638 5638 5638
5643 5643 5642 5642 5642 5641 5641 5641 5641 5640 5640 5640 5640 5639 5639 5638 5638 5637 5637 5636 5636 5636 5635 5635 5635 5635 5635 5634 5634 5633 5633 5633 5633 5633 5633 5632 5631 5631 5631 5631 5632 5632 5632 5632 5632 5632 5633 5633 5633 5633 5633 5633 5633 5633 5632 5632 5632 5632 5632 5632 5633 5633 5632 5632 5632 5632 5633 5633 5633
5639 5638 5637 5637 5637 5637 5636 5636 5636 5636 5635 5635 5635 5634 5634 5633 5633 5633 5632 5631 5631 5631 5631 5630 5630 5630 5630 5630 5629 5629 5628 5628 5628 5628 5628 5627 5626 5626 5626 5626 5626 5627 5627 5627 5627 5627 5627 5628 5628 5628 5628 5628 5627 5627 5627 5627 5627 5627 5627 5627 5627 5627 5627 5627 5627 5627 5627 5628 5628
5634 5633 5632 5632 5632 5631 5631 5631 5631 5630 5630 5630 5630 5629 5629 5629 5628 5628 5627 5627 5626 5626 5626 5626 5625 5625 5625 5625 5624 5624 5624 5623 5623 5623 5623 5622 5621 5621 5621 5621 5621 5621 5621 5622 5622 5622 5622 5622 5622 5622 5622 5622 5622 5622 5622 5622 5622 5622 5622 5622 5622 5622 5622 5622 5622 5622 5622 5622 5622
5629 5628 5628 5627 5627 5626 5626 5626 5625 5625 5625 5625 5624 5624 5624 5623 5623 5623 5622 5622 5621 5621 5621 5621 5620 5620 5620 5620 5619 5619 5619 5618 5618 5618 5617 5617 5616 5616 5616 5616 5616 5616 5616 5617 5617 5617 5617 5617 5617 5617 5617 5617 5617 5617 5617 5616 5616 5616 5616 5616 5616 5616 5617 5617 5617 5617 5617 5617 5617
5624 5623 5623 5622 5621 5621 5621 5620 5620 5620 5619 5619 5619 5619 5618 5618 5618 5617 5617 5617 5616 5616 5616 5615 5615 5615 5615 5614 5614 5614 5614 5613 5613 5613 5612 5612 5611 5611 5611 5611 5611 5611 5611 5611 5611 5611 5611 5611 5611 5611 5611 5611 5611 5611 5611 5611 5611 5611 5611 5611 5611 5611 5611 5611 5611 5611 5611 5612 5612
5618 5618 5617 5617 5616 5616 5615 5615 5615 5614 5614 5614 5613 5613 5613 5613 5612 5612 5612 5612 5611 5611 5611 5610 5610 5610 5610 5609 5609 5609 5609 5608 5608 5608 5607 5607 5606 5606 5606 5606 5606 5606 5606 5606 5605 5605 5605 5605 5605 5605 5605 5605 5606 5606 5606 5606 5606 5606 5606 5606 5606 5606 5606 5606 5606 5606 5606 5606 5606
5613 5612 5612 5611 5611 5610 5610 5610 5609 5609 5608 5608 5608 5607 5607 5607 5607 5606 5606 5606 5606 5605 5605 5605 5605 5605 5604 5604 5604 5604 5603 5603 5603 5603 5602 5602 5602 5601 5601 5601 5601 5600 5600 5600 5600 5599 5599 5599 5599 5600 5600 5600 5600 5600 5600 5600 5600 5600 5600 5600 5600 5600 5600 5600 5600 5600 5600 5600 5601
5607 5607 5606 5606 5605 5605 5605 5604 5604 5603 5603 5602 5602 5602 5601 5601 5601 5601 5601 5601 5600 5600 5600 5600 5600 5600 5599 5599 5599 5599 5598 5598 5598 5597 5597 5597 5597 5596 5596 5595 5595 5595 5594 5594 5594 5594 5594 5594 5594 5594 5594 5594 5595 5595 5595 5595 5595 5595 5595 5595 5595 5595 5595 5595 5595 5595 5595 5595 5595
5601 5601 5600 5600 5600 5599 5599 5598 5598 5597 5597 5596 5596 5596 5595 5595 5595 5595 5595 5595 5595 5595 5595 5595 5595 5594 5594 5594 5594 5593 5593 5593 5592 5592 5592 5592 5591 5591 5590 5590 5589 5588 5588 5588 5588 5588 5588 5588 5588 5588 5588 5589 5589 5589 5589 5589 5589 5590 5590 5589 5589 5589 5589 5589 5589 5589 5589 5589 5589
5595 5595 5594 5594 5594 5593 5593 5592 5592 5591 5591 5591 5590 5590 5590 5590 5590 5590 5590 5590 5590 5589 5589 5589 5589 5589 5589 5588 5588 5588 5587 5587 5587 5586 5586 5586 5585 5585 5584 5583 5583 5582 5582 5582 5582 5582 5582 5582 5582 5582 5582 5583 5583 5583 5583 5584 5584 5584 5584 5584 5584 5583 5583 5583 5583 5583 5583 5583 5583
5588 5588 5588 5588 5587 5587 5587 5586 5586 5585 5585 5585 5585 5585 5585 5585 5584 5584 5584 5584 5584 5584 5583 5583 5583 5583 5583 5582 5582 5582 5581 5581 5581 5580 5580 5580 5580 5579 5579 5578 5577 5577 5577 5577 5576 5576 5576 5576 5576 5576 5576 5577 5577 5577 5577 5578 5578 5578 5578 5578 5578 5577 5577 5577 5577 5577 5576 5576 5576
5582 5582 5581 5581 5581 5581 5580 5580 5580 5580 5580 5579 5579 5579 5579 5579 5579 5578 5578 5578 5578 5578 5577 5577 5577 5577 5577 5576 5576 5576 5575 5575 5575 5574 5574 5574 5574 5574 5573 5572 5571 5571 5571 5571 5570 5570 5570 5570 5570 5570 5570 5570 5571 5571 5571 5571 5572 5572 5572 5572 5571 5571 5571 5571 5570 5570 5570 5570 5570
5575 5575 5575 5575 5575 5575 5574 5574 5574 5574 5574 5573 5573 5573 5573 5573 5573 5572 5572 5572 5572 5572 5571 5571 5571 5571 5570 5570 5570 5570 5569 5569 5568 5568 5568 5568 5568 5568 5567 5566 5566 5565 5565 5565 5565 5564 5564 5564 5564 5564 5564 5564 5565 5565 5565 5565 5565 5565 5565 5565 5565 5565 5565 5565 5565 5565 5564 5564 5564
5568 5568 5568 5568 5568 5568 5568 5568 5568 5568 5568 5567 5567 5567 5567 5567 5567 5566 5566 5566 5566 5566 5565 5565 5565 5565 5565 5564 5564 5563 5563 5562 5562 5562 5562 5561 5561 5562 5562 5561 5560 5559 5559 5559 5558 5558 5557 5557 5557 5557 5557 5558 5558 5558 5559 5559 5559 5559 5559 5559 5559 5559 5558 5558 5558 5558 5558 5558 5557
5561 5561 5561 5561 5561 5561 5561 5562 5561 5561 5561 5561 5561 5561 5561 5561 5561 5560 5560 5560 5560 5560 5559 5559 5559 5559 5558 5558 5558 5557 5556 5556 5556 5556 5556 5555 5555 5555 5556 5555 5554 5553 5552 5552 5552 5552 5551 5551 5551 5551 5551 5551 5551 5552 5552 5552 5552 5552 5552 5552 5552 5552 5552 5552 5552 5552 5552 5551 5551
5555 5555 5555 5555 5555 5555 5555 5555 5555 5555 5555 5555 5555 5555 5555 5555 5555 5554 5554 5554 5554 5554 5553 5553 5552 5552 5552 5552 5552 5551 5550 5550 5550 5550 5550 5550 5549 5549 5549 5549 5548 5547 5546 5546 5546 5545 5545 5545 5544 5544 5544 5544 5545 5545 5545 5545 5545 5545 5545 5545 5545 5545 5545 5545 5545 5546 5545 5545 5544
5549 5549 5549 5549 5549 5549 5549 5549 5549 5549 5549 5549 5549 5548 5548 5548 5548 5548 5548 5548 5548 5547 5547 5547 5546 5546 5546 5546 5546 5545 5545 5544 5544 5544 5544 5544 5543 5543 5543 5543 5542 5541 5540 5540 5539 5539 5539 5538 5538 5537 5537 5537 5537 5537 5538 5538 5539 5539 5538 5538 5538 5539 5539 5539 5539 5539 5539 5538 5538